• en Suisse
  • Liste des pays
  • À 7 jours
  • Température de l'eau
  • Carte satellitaire
  • Carte météo
  • Widgets météo
  • user-avatar
    Se connecter

    Météo par heure à Holhol

    Ce jour, 17 Décembre, Dimanche

    Heure Température Précipitation Vent Pression Humidité
    00:00 +22°C° 0 mm 3 m/s 716 mmHg 75%
    01:00 +22°C° 0 mm 3 m/s 716 mmHg 76%
    02:00 +22°C° 0 mm 3 m/s 716 mmHg 77%
    03:00 +21°C° 0 mm 3 m/s 716 mmHg 78%
    04:00 +21°C° 0 mm 2 m/s 716 mmHg 80%
    05:00 +21°C° 0 mm 2 m/s 716 mmHg 81%
    06:00 +21°C° 0 mm 2 m/s 716 mmHg 82%
    07:00 +22°C° 0 mm 3 m/s 717 mmHg 76%
    08:00 +22°C° 0 mm 3 m/s 717 mmHg 71%
    09:00 +23°C° 0 mm 4 m/s 717 mmHg 66%
    10:00 +25°C° 0 mm 4 m/s 717 mmHg 62%
    11:00 +26°C° 0 mm 5 m/s 717 mmHg 58%
    12:00 +27°C° 0 mm 6 m/s 717 mmHg 54%
    13:00 +27°C° 0 mm 6 m/s 717 mmHg 54%
    14:00 +27°C° 0 mm 6 m/s 716 mmHg 54%
    15:00 +27°C° 0 mm 7 m/s 716 mmHg 55%
    16:00 +26°C° 0 mm 6 m/s 716 mmHg 58%
    17:00 +24°C° 0 mm 6 m/s 716 mmHg 61%
    18:00 +24°C° 0 mm 6 m/s 716 mmHg 64%
    19:00 +23°C° 0 mm 5 m/s 716 mmHg 66%
    20:00 +23°C° 0 mm 5 m/s 717 mmHg 68%
    21:00 +22°C° 0 mm 4 m/s 717 mmHg 70%
    22:00 +22°C° 0 mm 4 m/s 717 mmHg 73%
    23:00 +22°C° 0 mm 4 m/s 717 mmHg 75%

    Demain, 18 Décembre, Lundi

    Heure Température Précipitation Vent Pression Humidité
    00:00 +22°C° 0 mm 4 m/s 717 mmHg 77%
    01:00 +22°C° 0,1 mm 4 m/s 717 mmHg 78%
    02:00 +21°C° 0,1 mm 3 m/s 717 mmHg 78%
    03:00 +21°C° 0,1 mm 3 m/s 717 mmHg 79%
    04:00 +21°C° 0 mm 3 m/s 717 mmHg 79%
    05:00 +21°C° 0 mm 3 m/s 717 mmHg 80%
    06:00 +21°C° 0 mm 2 m/s 717 mmHg 80%
    07:00 +22°C° 0 mm 3 m/s 718 mmHg 75%
    08:00 +23°C° 0 mm 4 m/s 719 mmHg 70%
    09:00 +23°C° 0 mm 4 m/s 719 mmHg 64%
    10:00 +26°C° 0 mm 5 m/s 719 mmHg 59%
    11:00 +27°C° 0 mm 5 m/s 719 mmHg 53%
    12:00 +28°C° 0 mm 6 m/s 718 mmHg 47%
    13:00 +28°C° 0 mm 6 m/s 717 mmHg 48%
    14:00 +28°C° 0 mm 7 m/s 717 mmHg 49%
    15:00 +28°C° 0 mm 7 m/s 716 mmHg 49%
    16:00 +27°C° 0 mm 7 m/s 716 mmHg 54%
    17:00 +26°C° 0 mm 6 m/s 716 mmHg 59%
    18:00 +24°C° 0 mm 6 m/s 716 mmHg 64%
    19:00 +24°C° 0 mm 6 m/s 716 mmHg 67%
    20:00 +23°C° 0 mm 6 m/s 717 mmHg 69%
    21:00 +23°C° 0 mm 6 m/s 717 mmHg 71%
    22:00 +23°C° 0 mm 5 m/s 717 mmHg 72%
    23:00 +22°C° 0 mm 5 m/s 717 mmHg 73%

    Après-demain, 19 Décembre, Mardi

    Heure Température Précipitation Vent Pression Humidité
    00:00 +22°C° 0 mm 5 m/s 717 mmHg 75%
    01:00 +22°C° 0,1 mm 4 m/s 717 mmHg 76%
    02:00 +22°C° 0,1 mm 4 m/s 717 mmHg 77%
    03:00 +21°C° 0,1 mm 4 m/s 717 mmHg 78%
    04:00 +21°C° 0,1 mm 4 m/s 717 mmHg 79%
    05:00 +21°C° 0,1 mm 3 m/s 717 mmHg 80%
    06:00 +21°C° 0,1 mm 3 m/s 717 mmHg 80%
    07:00 +22°C° 0,1 mm 4 m/s 718 mmHg 73%
    08:00 +23°C° 0,1 mm 5 m/s 719 mmHg 67%
    09:00 +24°C° 0,1 mm 6 m/s 720 mmHg 60%
    10:00 +26°C° 0 mm 7 m/s 719 mmHg 54%
    11:00 +27°C° 0 mm 7 m/s 719 mmHg 49%
    12:00 +28°C° 0 mm 8 m/s 719 mmHg 43%
    13:00 +28°C° 0 mm 8 m/s 718 mmHg 42%
    14:00 +28°C° 0 mm 8 m/s 717 mmHg 41%
    15:00 +28°C° 0 mm 7 m/s 716 mmHg 40%
    16:00 +27°C° 0 mm 7 m/s 717 mmHg 44%
    17:00 +26°C° 0 mm 7 m/s 717 mmHg 48%
    18:00 +24°C° 0 mm 6 m/s 717 mmHg 53%
    19:00 +24°C° 0 mm 6 m/s 718 mmHg 55%
    20:00 +23°C° 0 mm 6 m/s 718 mmHg 58%
    21:00 +23°C° 0 mm 5 m/s 719 mmHg 61%
    22:00 +22°C° 0 mm 5 m/s 718 mmHg 62%
    23:00 +22°C° 0 mm 5 m/s 718 mmHg 64%

    20 Décembre, Mercredi

    Heure Température Précipitation Vent Pression Humidité
    00:00 +22°C° 0 mm 4 m/s 718 mmHg 65%
    01:00 +21°C° 0 mm 4 m/s 718 mmHg 65%
    02:00 +21°C° 0 mm 3 m/s 717 mmHg 65%
    03:00 +21°C° 0 mm 3 m/s 717 mmHg 65%
    04:00 +20°C° 0 mm 3 m/s 718 mmHg 64%
    05:00 +20°C° 0 mm 3 m/s 718 mmHg 63%
    06:00 +20°C° 0 mm 3 m/s 718 mmHg 62%
    07:00 +21°C° 0 mm 4 m/s 719 mmHg 57%
    08:00 +22°C° 0 mm 5 m/s 720 mmHg 52%
    09:00 +24°C° 0 mm 6 m/s 720 mmHg 47%
    10:00 +26°C° 0 mm 6 m/s 720 mmHg 42%
    11:00 +27°C° 0 mm 7 m/s 720 mmHg 37%
    12:00 +28°C° 0 mm 7 m/s 719 mmHg 32%
    13:00 +28°C° 0 mm 7 m/s 719 mmHg 31%
    14:00 +28°C° 0 mm 7 m/s 718 mmHg 30%
    15:00 +28°C° 0 mm 7 m/s 717 mmHg 30%
    16:00 +27°C° 0 mm 7 m/s 718 mmHg 33%
    17:00 +26°C° 0 mm 7 m/s 718 mmHg 36%
    18:00 +24°C° 0 mm 6 m/s 718 mmHg 40%
    19:00 +23°C° 0 mm 6 m/s 719 mmHg 44%
    20:00 +23°C° 0 mm 6 m/s 719 mmHg 47%
    21:00 +23°C° 0 mm 5 m/s 720 mmHg 51%
    22:00 +22°C° 0 mm 5 m/s 720 mmHg 54%
    23:00 +22°C° 0 mm 5 m/s 719 mmHg 57%

    21 Décembre, Jeudi

    Heure Température Précipitation Vent Pression Humidité
    00:00 +21°C° 0 mm 4 m/s 719 mmHg 60%
    01:00 +21°C° 0 mm 4 m/s 719 mmHg 61%
    02:00 +21°C° 0 mm 3 m/s 719 mmHg 62%
    03:00 +21°C° 0 mm 3 m/s 718 mmHg 63%
    04:00 +20°C° 0 mm 2 m/s 719 mmHg 65%
    05:00 +20°C° 0 mm 2 m/s 719 mmHg 67%
    06:00 +20°C° 0 mm 2 m/s 719 mmHg 68%
    07:00 +21°C° 0 mm 3 m/s 720 mmHg 64%
    08:00 +22°C° 0 mm 4 m/s 720 mmHg 59%
    09:00 +23°C° 0 mm 5 m/s 721 mmHg 55%
    10:00 +24°C° 0 mm 6 m/s 720 mmHg 51%
    11:00 +27°C° 0 mm 7 m/s 720 mmHg 46%
    12:00 +28°C° 0 mm 7 m/s 719 mmHg 42%
    13:00 +28°C° 0 mm 7 m/s 719 mmHg 42%
    14:00 +28°C° 0 mm 7 m/s 718 mmHg 42%
    15:00 +28°C° 0 mm 7 m/s 717 mmHg 42%
    16:00 +27°C° 0 mm 7 m/s 718 mmHg 45%
    17:00 +26°C° 0 mm 6 m/s 718 mmHg 48%
    18:00 +24°C° 0 mm 6 m/s 718 mmHg 51%
    19:00 +24°C° 0 mm 6 m/s 718 mmHg 53%
    20:00 +23°C° 0 mm 5 m/s 718 mmHg 56%
    21:00 +23°C° 0 mm 5 m/s 719 mmHg 58%
    22:00 +22°C° 0 mm 4 m/s 719 mmHg 60%
    23:00 +22°C° 0 mm 3 m/s 718 mmHg 61%

    22 Décembre, Vendredi

    Heure Température Précipitation Vent Pression Humidité
    00:00 +21°C° 0 mm 3 m/s 718 mmHg 63%
    01:00 +21°C° 0 mm 2 m/s 718 mmHg 65%
    02:00 +21°C° 0 mm 2 m/s 717 mmHg 66%
    03:00 +21°C° 0 mm 1 m/s 717 mmHg 68%
    04:00 +21°C° 0 mm 1 m/s 717 mmHg 69%
    05:00 +21°C° 0 mm 1 m/s 718 mmHg 70%
    06:00 +21°C° 0 mm 1 m/s 718 mmHg 72%
    07:00 +21°C° 0 mm 2 m/s 718 mmHg 67%
    08:00 +22°C° 0 mm 3 m/s 719 mmHg 63%
    09:00 +23°C° 0 mm 4 m/s 719 mmHg 59%
    10:00 +25°C° 0 mm 5 m/s 719 mmHg 53%
    11:00 +26°C° 0 mm 5 m/s 718 mmHg 48%
    12:00 +27°C° 0 mm 6 m/s 718 mmHg 42%
    13:00 +28°C° 0 mm 6 m/s 717 mmHg 41%
    14:00 +28°C° 0 mm 6 m/s 716 mmHg 40%
    15:00 +28°C° 0 mm 7 m/s 716 mmHg 39%
    16:00 +27°C° 0 mm 6 m/s 716 mmHg 42%
    17:00 +26°C° 0 mm 6 m/s 716 mmHg 46%
    18:00 +24°C° 0 mm 6 m/s 716 mmHg 50%
    19:00 +25°C° 0 mm 5 m/s 716 mmHg 53%
    20:00 +23°C° 0 mm 5 m/s 716 mmHg 56%
    21:00 +22°C° 0 mm 5 m/s 716 mmHg 59%
    22:00 +22°C° 0 mm 4 m/s 716 mmHg 61%
    23:00 +22°C° 0 mm 4 m/s 716 mmHg 63%
    Voir plus

    XHprof extension not loaded